Location: St. Louis
(38.6270°N, 90.1994°W)
Time: 13:00:31
(UTC-06:00)

deb Explorer IX - Pass Details

Date: 06 December 2021
Orbit: 544 x 1082 km, 38.8° (Epoch: 16 January)

Event Time Altitude Azimuth Distance (km) Brightness Sun altitude
Rises 09:56:41 0° 253° (WSW) 3,189 ? 23.1°
Reaches altitude 10° 09:59:17 10° 252° (WSW) 2,175 ? 23.3°
Maximum altitude 10:04:17 75° 168° (SSE) 660 ? 23.8°
Drops below altitude 10° 10:08:34 10° 83° (E) 1,879 ? 24.2°
Sets 10:10:48 0° 81° (E) 2,762 ? 24.4°
